Year,Month,Day,Hour,Minute,Value (Times are PST for temperature in C)
2020,04,23,00,00,8.50
2020,04,23,00,01,8.40
2020,04,23,00,02,8.30
2020,04,23,00,03,8.30
2020,04,23,00,04,8.30
2020,04,23,00,05,8.30
2020,04,23,00,06,8.30
2020,04,23,00,07,8.30
2020,04,23,00,08,8.30
2020,04,23,00,09,8.20
2020,04,23,00,10,8.20
2020,04,23,00,11,8.20
2020,04,23,00,12,8.20
2020,04,23,00,13,8.20
2020,04,23,00,14,8.20
2020,04,23,00,15,8.10
2020,04,23,00,16,8.10
2020,04,23,00,17,8.10
2020,04,23,00,18,8.10
2020,04,23,00,19,8.10
2020,04,23,00,20,8.10
2020,04,23,00,21,8.00
2020,04,23,00,22,8.00
2020,04,23,00,23,8.00
2020,04,23,00,24,8.00
2020,04,23,00,25,8.00
2020,04,23,00,26,8.00
2020,04,23,00,27,8.00
2020,04,23,00,28,8.00
2020,04,23,00,29,8.00
2020,04,23,00,30,8.00
2020,04,23,00,31,8.00
2020,04,23,00,32,8.00
2020,04,23,00,33,7.90
2020,04,23,00,34,7.90
2020,04,23,00,35,7.90
2020,04,23,00,36,7.90
2020,04,23,00,37,7.90
2020,04,23,00,38,7.90
2020,04,23,00,39,7.90
2020,04,23,00,40,8.00
2020,04,23,00,41,8.00
2020,04,23,00,42,8.00
2020,04,23,00,43,8.00
2020,04,23,00,44,8.00
2020,04,23,00,45,8.10
2020,04,23,00,46,8.10
2020,04,23,00,47,8.10
2020,04,23,00,48,8.10
2020,04,23,00,49,8.00
2020,04,23,00,50,8.00
2020,04,23,00,51,8.00
2020,04,23,00,52,8.00
2020,04,23,00,53,8.00
2020,04,23,00,54,8.00
2020,04,23,00,55,7.90
2020,04,23,00,56,7.90
2020,04,23,00,57,7.90
2020,04,23,00,58,7.90
2020,04,23,00,59,7.80
2020,04,23,01,00,7.80
2020,04,23,01,01,7.80
2020,04,23,01,02,7.80
2020,04,23,01,03,7.80
2020,04,23,01,04,7.80
2020,04,23,01,05,7.70
2020,04,23,01,06,7.70
2020,04,23,01,07,7.70
2020,04,23,01,08,7.70
2020,04,23,01,09,7.70
2020,04,23,01,10,7.70
2020,04,23,01,11,7.70
2020,04,23,01,12,7.70
2020,04,23,01,13,7.70
2020,04,23,01,14,7.70
2020,04,23,01,15,7.70
2020,04,23,01,16,7.70
2020,04,23,01,17,7.70
2020,04,23,01,18,7.70
2020,04,23,01,19,7.70
2020,04,23,01,20,7.80
2020,04,23,01,21,7.80
2020,04,23,01,22,7.80
2020,04,23,01,23,7.80
2020,04,23,01,24,7.80
2020,04,23,01,25,7.80
2020,04,23,01,26,7.80
2020,04,23,01,27,7.80
2020,04,23,01,28,7.80
2020,04,23,01,29,7.80
2020,04,23,01,30,7.80
2020,04,23,01,31,7.80
2020,04,23,01,32,7.80
2020,04,23,01,33,7.80
2020,04,23,01,34,7.80
2020,04,23,01,35,7.80
2020,04,23,01,36,7.80
2020,04,23,01,37,7.80
2020,04,23,01,38,7.80
2020,04,23,01,39,7.80
2020,04,23,01,40,7.80
2020,04,23,01,41,7.80
2020,04,23,01,42,7.80
2020,04,23,01,43,7.80
2020,04,23,01,44,7.70
2020,04,23,01,45,7.70
2020,04,23,01,46,7.60
2020,04,23,01,47,7.60
2020,04,23,01,48,7.60
2020,04,23,01,49,7.60
2020,04,23,01,50,7.60
2020,04,23,01,51,7.60
2020,04,23,01,52,7.60
2020,04,23,01,53,7.60
2020,04,23,01,54,7.60
2020,04,23,01,55,7.60
2020,04,23,01,56,7.60
2020,04,23,01,57,7.60
2020,04,23,01,58,7.50
2020,04,23,01,59,7.50
2020,04,23,02,00,7.50
2020,04,23,02,01,7.50
2020,04,23,02,02,7.50
2020,04,23,02,03,7.50
2020,04,23,02,04,7.50
2020,04,23,02,05,7.50
2020,04,23,02,06,7.60
2020,04,23,02,07,7.60
2020,04,23,02,08,7.60
2020,04,23,02,09,7.60
2020,04,23,02,10,7.70
2020,04,23,02,11,7.70
2020,04,23,02,12,7.70
2020,04,23,02,13,7.70
2020,04,23,02,14,7.60
2020,04,23,02,15,7.60
2020,04,23,02,16,7.60
2020,04,23,02,17,7.60
2020,04,23,02,18,7.50
2020,04,23,02,19,7.50
2020,04,23,02,20,7.50
2020,04,23,02,21,7.50
2020,04,23,02,22,7.40
2020,04,23,02,23,7.40
2020,04,23,02,24,7.40
2020,04,23,02,25,7.40
2020,04,23,02,26,7.40
2020,04,23,02,27,7.40
2020,04,23,02,28,7.30
2020,04,23,02,29,7.30
2020,04,23,02,30,7.30
2020,04,23,02,31,7.30
2020,04,23,02,32,7.30
2020,04,23,02,33,7.30
2020,04,23,02,34,7.30
2020,04,23,02,35,7.20
2020,04,23,02,36,7.20
2020,04,23,02,37,7.20
2020,04,23,02,38,7.20
2020,04,23,02,39,7.20
2020,04,23,02,40,7.20
2020,04,23,02,41,7.20
2020,04,23,02,42,7.10
2020,04,23,02,43,7.10
2020,04,23,02,44,7.10
2020,04,23,02,45,7.10
2020,04,23,02,46,7.10
2020,04,23,02,47,7.00
2020,04,23,02,48,7.00
2020,04,23,02,49,7.00
2020,04,23,02,50,7.00
2020,04,23,02,51,7.00
2020,04,23,02,52,7.00
2020,04,23,02,53,7.00
2020,04,23,02,54,7.00
2020,04,23,02,55,7.00
2020,04,23,02,56,7.00
2020,04,23,02,57,7.00
2020,04,23,02,58,7.00
2020,04,23,02,59,7.00
2020,04,23,03,00,7.00
2020,04,23,03,01,7.00
2020,04,23,03,02,7.00
2020,04,23,03,03,7.00
2020,04,23,03,04,7.00
2020,04,23,03,05,7.00
2020,04,23,03,06,7.00
2020,04,23,03,07,7.00
2020,04,23,03,08,7.00
2020,04,23,03,09,7.00
2020,04,23,03,10,7.00
2020,04,23,03,11,7.00
2020,04,23,03,12,7.00
2020,04,23,03,13,7.00
2020,04,23,03,14,7.00
2020,04,23,03,15,7.00
2020,04,23,03,16,7.00
2020,04,23,03,17,7.00
2020,04,23,03,18,7.00
2020,04,23,03,19,7.00
2020,04,23,03,20,7.00
2020,04,23,03,21,7.00
2020,04,23,03,22,7.00
2020,04,23,03,23,7.00
2020,04,23,03,24,7.00
2020,04,23,03,25,6.90
2020,04,23,03,26,6.90
2020,04,23,03,27,6.90
2020,04,23,03,28,6.90
2020,04,23,03,29,6.90
2020,04,23,03,30,6.90
2020,04,23,03,31,6.90
2020,04,23,03,32,6.90
2020,04,23,03,33,6.90
2020,04,23,03,34,6.90
2020,04,23,03,35,6.80
2020,04,23,03,36,6.80
2020,04,23,03,37,6.90
2020,04,23,03,38,6.90
2020,04,23,03,39,6.90
2020,04,23,03,40,6.90
2020,04,23,03,41,6.90
2020,04,23,03,42,6.90
2020,04,23,03,43,6.90
2020,04,23,03,44,6.90
2020,04,23,03,45,6.90
2020,04,23,03,46,6.90
2020,04,23,03,47,6.80
2020,04,23,03,48,6.80
2020,04,23,03,49,6.80
2020,04,23,03,50,6.80
2020,04,23,03,51,6.80
2020,04,23,03,52,6.80
2020,04,23,03,53,6.70
2020,04,23,03,54,6.70
2020,04,23,03,55,6.70
2020,04,23,03,56,6.70
2020,04,23,03,57,6.80
2020,04,23,03,58,6.80
2020,04,23,03,59,6.80
2020,04,23,04,00,6.80
2020,04,23,04,01,6.80
2020,04,23,04,02,6.80
2020,04,23,04,03,6.80
2020,04,23,04,04,6.80
2020,04,23,04,05,6.90
2020,04,23,04,06,6.90
2020,04,23,04,07,6.90
2020,04,23,04,08,6.90
2020,04,23,04,09,6.90
2020,04,23,04,10,6.90
2020,04,23,04,11,6.90
2020,04,23,04,12,6.90
2020,04,23,04,13,6.90
2020,04,23,04,14,6.90
2020,04,23,04,15,6.90
2020,04,23,04,16,6.90
2020,04,23,04,17,7.00
2020,04,23,04,18,7.00
2020,04,23,04,19,7.00
2020,04,23,04,20,7.00
2020,04,23,04,21,7.00
2020,04,23,04,22,7.00
2020,04,23,04,23,7.00
2020,04,23,04,24,7.00
2020,04,23,04,25,7.00
2020,04,23,04,26,7.00
2020,04,23,04,27,7.10
2020,04,23,04,28,7.10
2020,04,23,04,29,7.10
2020,04,23,04,30,7.10
2020,04,23,04,31,7.10
2020,04,23,04,32,7.10
2020,04,23,04,33,7.10
2020,04,23,04,34,7.10
2020,04,23,04,35,7.10
2020,04,23,04,36,7.10
2020,04,23,04,37,7.10
2020,04,23,04,38,7.10
2020,04,23,04,39,7.10
2020,04,23,04,40,7.10
2020,04,23,04,41,7.10
2020,04,23,04,42,7.10
2020,04,23,04,43,7.10
2020,04,23,04,44,7.10
2020,04,23,04,45,7.10
2020,04,23,04,46,7.10
2020,04,23,04,47,7.20
2020,04,23,04,48,7.20
2020,04,23,04,49,7.20
2020,04,23,04,50,7.20
2020,04,23,04,51,7.20
2020,04,23,04,52,7.20
2020,04,23,04,53,7.20
2020,04,23,04,54,7.20
2020,04,23,04,55,7.20
2020,04,23,04,56,7.30
2020,04,23,04,57,7.30
2020,04,23,04,58,7.30
2020,04,23,04,59,7.30
2020,04,23,05,00,7.30
2020,04,23,05,01,7.30
2020,04,23,05,02,7.30
2020,04,23,05,03,7.30
2020,04,23,05,04,7.30
2020,04,23,05,05,7.20
2020,04,23,05,06,7.20
2020,04,23,05,07,7.20
2020,04,23,05,08,7.20
2020,04,23,05,09,7.20
2020,04,23,05,10,7.20
2020,04,23,05,11,7.20
2020,04,23,05,12,7.20
2020,04,23,05,13,7.10
2020,04,23,05,14,7.10
2020,04,23,05,15,7.10
2020,04,23,05,16,7.10
2020,04,23,05,17,7.10
2020,04,23,05,18,7.10
2020,04,23,05,19,7.10
2020,04,23,05,20,7.10
2020,04,23,05,21,7.10
2020,04,23,05,22,7.10
2020,04,23,05,23,7.10
2020,04,23,05,24,7.10
2020,04,23,05,25,7.10
2020,04,23,05,26,7.10
2020,04,23,05,27,7.10
2020,04,23,05,28,7.10
2020,04,23,05,29,7.10
2020,04,23,05,30,7.10
2020,04,23,05,31,7.10
2020,04,23,05,32,7.10
2020,04,23,05,33,7.20
2020,04,23,05,34,7.20
2020,04,23,05,35,7.30
2020,04,23,05,36,7.30
2020,04,23,05,37,7.30
2020,04,23,05,38,7.30
2020,04,23,05,39,7.30
2020,04,23,05,40,7.30
2020,04,23,05,41,7.30
2020,04,23,05,42,7.30
2020,04,23,05,43,7.30
2020,04,23,05,44,7.30
2020,04,23,05,45,7.30
2020,04,23,05,46,7.30
2020,04,23,05,47,7.30
2020,04,23,05,48,7.30
2020,04,23,05,49,7.30
2020,04,23,05,50,7.30
2020,04,23,05,51,7.30
2020,04,23,05,52,7.30
2020,04,23,05,53,7.30
2020,04,23,05,54,7.30
2020,04,23,05,55,7.20
2020,04,23,05,56,7.20
2020,04,23,05,57,7.20
2020,04,23,05,58,7.20
2020,04,23,05,59,7.20
2020,04,23,06,00,7.20
2020,04,23,06,01,7.20
2020,04,23,06,02,7.20
2020,04,23,06,03,7.20
2020,04,23,06,04,7.10
2020,04,23,06,05,7.10
2020,04,23,06,06,7.10
2020,04,23,06,07,7.00
2020,04,23,06,08,7.00
2020,04,23,06,09,7.00
2020,04,23,06,10,7.00
2020,04,23,06,11,7.00
2020,04,23,06,12,7.00
2020,04,23,06,13,7.00
2020,04,23,06,14,7.00
2020,04,23,06,15,7.00
2020,04,23,06,16,7.10
2020,04,23,06,17,7.10
2020,04,23,06,18,7.10
2020,04,23,06,19,7.10
2020,04,23,06,20,7.10
2020,04,23,06,21,7.20
2020,04,23,06,22,7.20
2020,04,23,06,23,7.20
2020,04,23,06,24,7.20
2020,04,23,06,25,7.20
2020,04,23,06,26,7.20
2020,04,23,06,27,7.20
2020,04,23,06,28,7.20
2020,04,23,06,29,7.20
2020,04,23,06,30,7.20
2020,04,23,06,31,7.20
2020,04,23,06,32,7.10
2020,04,23,06,33,7.10
2020,04,23,06,34,7.10
2020,04,23,06,35,7.10
2020,04,23,06,36,7.10
2020,04,23,06,37,7.00
2020,04,23,06,38,7.00
2020,04,23,06,39,7.00
2020,04,23,06,40,7.10
2020,04,23,06,41,7.10
2020,04,23,06,42,7.10
2020,04,23,06,43,7.10
2020,04,23,06,44,7.10
2020,04,23,06,45,7.20
2020,04,23,06,46,7.20
2020,04,23,06,47,7.20
2020,04,23,06,48,7.20
2020,04,23,06,49,7.30
2020,04,23,06,50,7.30
2020,04,23,06,51,7.30
2020,04,23,06,52,7.30
2020,04,23,06,53,7.30
2020,04,23,06,54,7.30
2020,04,23,06,55,7.40
2020,04,23,06,56,7.40
2020,04,23,06,57,7.50
2020,04,23,06,58,7.50
2020,04,23,06,59,7.60
2020,04,23,07,00,7.60
2020,04,23,07,01,7.70
2020,04,23,07,02,7.70
2020,04,23,07,03,7.80
2020,04,23,07,04,7.80
2020,04,23,07,05,7.90
2020,04,23,07,06,8.00
2020,04,23,07,07,8.10
2020,04,23,07,08,8.20
2020,04,23,07,09,8.20
2020,04,23,07,10,8.30
2020,04,23,07,11,8.30
2020,04,23,07,12,8.40
2020,04,23,07,13,8.40
2020,04,23,07,14,8.40
2020,04,23,07,15,8.50
2020,04,23,07,16,8.50
2020,04,23,07,17,8.50
2020,04,23,07,18,8.60
2020,04,23,07,19,8.60
2020,04,23,07,20,8.70
2020,04,23,07,21,8.70
2020,04,23,07,22,8.70
2020,04,23,07,23,8.70
2020,04,23,07,24,8.70
2020,04,23,07,25,8.70
2020,04,23,07,26,8.70
2020,04,23,07,27,8.70
2020,04,23,07,28,8.80
2020,04,23,07,29,8.80
2020,04,23,07,30,8.80
2020,04,23,07,31,8.80
2020,04,23,07,32,8.80
2020,04,23,07,33,8.90
2020,04,23,07,34,8.90
2020,04,23,07,35,8.90
2020,04,23,07,36,8.90
2020,04,23,07,37,8.90
2020,04,23,07,38,9.00
2020,04,23,07,39,9.00
2020,04,23,07,40,9.00
2020,04,23,07,41,9.00
2020,04,23,07,42,9.00
2020,04,23,07,43,9.00
2020,04,23,07,44,9.10
2020,04,23,07,45,9.10
2020,04,23,07,46,9.10
2020,04,23,07,47,9.10
2020,04,23,07,48,9.20
2020,04,23,07,49,9.20
2020,04,23,07,50,9.20
2020,04,23,07,51,9.20
2020,04,23,07,52,9.20
2020,04,23,07,53,9.20
2020,04,23,07,54,9.20
2020,04,23,07,55,9.20
2020,04,23,07,56,9.30
2020,04,23,07,57,9.30
2020,04,23,07,58,9.30
2020,04,23,07,59,9.40
2020,04,23,08,00,9.40
2020,04,23,08,01,9.40
2020,04,23,08,02,9.40
2020,04,23,08,03,9.50
2020,04,23,08,04,9.50
2020,04,23,08,05,9.50
2020,04,23,08,06,9.60
2020,04,23,08,07,9.60
2020,04,23,08,08,9.70
2020,04,23,08,09,9.70
2020,04,23,08,10,9.70
2020,04,23,08,11,9.70
2020,04,23,08,12,9.70
2020,04,23,08,13,9.70
2020,04,23,08,14,9.80
2020,04,23,08,15,9.80
2020,04,23,08,16,9.80
2020,04,23,08,17,9.90
2020,04,23,08,18,9.90
2020,04,23,08,19,9.90
2020,04,23,08,20,9.90
2020,04,23,08,21,9.90
2020,04,23,08,22,9.90
2020,04,23,08,23,9.90
2020,04,23,08,24,9.90
2020,04,23,08,25,10.00
2020,04,23,08,26,10.10
2020,04,23,08,27,10.10
2020,04,23,08,28,10.10
2020,04,23,08,29,10.10
2020,04,23,08,30,10.10
2020,04,23,08,31,10.10
2020,04,23,08,32,10.20
2020,04,23,08,33,10.10
2020,04,23,08,34,10.20
2020,04,23,08,35,10.20
2020,04,23,08,36,10.20
2020,04,23,08,37,10.20
2020,04,23,08,38,10.30
2020,04,23,08,39,10.30
2020,04,23,08,40,10.40
2020,04,23,08,41,10.40
2020,04,23,08,42,10.40
2020,04,23,08,43,10.40
2020,04,23,08,44,10.40
2020,04,23,08,45,10.40
2020,04,23,08,46,10.40
2020,04,23,08,47,10.40
2020,04,23,08,48,10.40
2020,04,23,08,49,10.40
2020,04,23,08,50,10.40
2020,04,23,08,51,10.50
2020,04,23,08,52,10.60
2020,04,23,08,53,10.60
2020,04,23,08,54,10.60
2020,04,23,08,55,10.70
2020,04,23,08,56,10.70
2020,04,23,08,57,10.70
2020,04,23,08,58,10.70
2020,04,23,08,59,10.70
2020,04,23,09,00,10.70
2020,04,23,09,01,10.70
2020,04,23,09,02,10.70
2020,04,23,09,03,10.70
2020,04,23,09,04,10.70
2020,04,23,09,05,10.60
2020,04,23,09,06,10.70
2020,04,23,09,07,10.60
2020,04,23,09,08,10.60
2020,04,23,09,09,10.60
2020,04,23,09,10,10.60
2020,04,23,09,11,10.60
2020,04,23,09,12,10.60
2020,04,23,09,13,10.60
2020,04,23,09,14,10.60
2020,04,23,09,15,10.60
2020,04,23,09,16,10.60
2020,04,23,09,17,10.70
2020,04,23,09,18,10.60
2020,04,23,09,19,10.70
2020,04,23,09,20,10.70
2020,04,23,09,21,10.70
2020,04,23,09,22,10.70
2020,04,23,09,23,10.80
2020,04,23,09,24,10.80
2020,04,23,09,25,10.80
2020,04,23,09,26,10.80
2020,04,23,09,27,10.70
2020,04,23,09,28,10.70
2020,04,23,09,29,10.70
2020,04,23,09,30,10.70
2020,04,23,09,31,10.70
2020,04,23,09,32,10.70
2020,04,23,09,33,10.70
2020,04,23,09,34,10.60
2020,04,23,09,35,10.60
2020,04,23,09,36,10.60
2020,04,23,09,37,10.60
2020,04,23,09,38,10.60
2020,04,23,09,39,10.70
2020,04,23,09,40,10.70
2020,04,23,09,41,10.70
2020,04,23,09,42,10.70
2020,04,23,09,43,10.70
2020,04,23,09,44,10.70
2020,04,23,09,45,10.70
2020,04,23,09,46,10.70
2020,04,23,09,47,10.80
2020,04,23,09,48,10.80
2020,04,23,09,49,10.80
2020,04,23,09,50,10.80
2020,04,23,09,51,10.90
2020,04,23,09,52,10.90
2020,04,23,09,53,10.90
2020,04,23,09,54,10.90
2020,04,23,09,55,10.90
2020,04,23,09,56,11.00
2020,04,23,09,57,11.10
2020,04,23,09,58,11.10
2020,04,23,09,59,11.10
2020,04,23,10,00,11.10
2020,04,23,10,01,11.10
2020,04,23,10,02,11.10
2020,04,23,10,03,11.20
2020,04,23,10,04,11.20
2020,04,23,10,05,11.20
2020,04,23,10,06,11.20
2020,04,23,10,07,11.20
2020,04,23,10,08,11.30
2020,04,23,10,09,11.30
2020,04,23,10,10,11.30
2020,04,23,10,11,11.40
2020,04,23,10,12,11.40
2020,04,23,10,13,11.40
2020,04,23,10,14,11.40
2020,04,23,10,15,11.60
2020,04,23,10,16,11.60
2020,04,23,10,17,11.60
2020,04,23,10,18,11.60
2020,04,23,10,19,11.80
2020,04,23,10,20,11.80
2020,04,23,10,21,11.80
2020,04,23,10,22,11.80
2020,04,23,10,23,11.80
2020,04,23,10,24,11.90
2020,04,23,10,25,12.00
2020,04,23,10,26,12.10
2020,04,23,10,27,12.20
2020,04,23,10,28,12.10
2020,04,23,10,29,12.10
2020,04,23,10,30,12.20
2020,04,23,10,31,12.30
2020,04,23,10,32,12.30
2020,04,23,10,33,12.30
2020,04,23,10,34,12.30
2020,04,23,10,35,12.30
2020,04,23,10,36,12.30
2020,04,23,10,37,12.40
2020,04,23,10,38,12.40
2020,04,23,10,39,12.40
2020,04,23,10,40,12.30
2020,04,23,10,41,12.30
2020,04,23,10,42,12.30
2020,04,23,10,43,12.20
2020,04,23,10,44,12.20
2020,04,23,10,45,12.10
2020,04,23,10,46,12.10
2020,04,23,10,47,12.10
2020,04,23,10,48,12.10
2020,04,23,10,49,12.20
2020,04,23,10,50,12.30
2020,04,23,10,51,12.30
2020,04,23,10,52,12.30
2020,04,23,10,53,12.20
2020,04,23,10,54,12.20
2020,04,23,10,55,12.20
2020,04,23,10,56,12.30
2020,04,23,10,57,12.20
2020,04,23,10,58,12.20
2020,04,23,10,59,12.30
2020,04,23,11,00,12.40
2020,04,23,11,01,12.50
2020,04,23,11,02,12.60
2020,04,23,11,03,12.70
2020,04,23,11,04,12.80
2020,04,23,11,05,12.70
2020,04,23,11,06,12.70
2020,04,23,11,07,12.80
2020,04,23,11,08,12.90
2020,04,23,11,09,12.90
2020,04,23,11,10,13.00
2020,04,23,11,11,13.10
2020,04,23,11,12,13.20
2020,04,23,11,13,13.20
2020,04,23,11,14,13.10
2020,04,23,11,15,12.90
2020,04,23,11,16,12.80
2020,04,23,11,17,12.60
2020,04,23,11,18,12.50
2020,04,23,11,19,12.50
2020,04,23,11,20,12.40
2020,04,23,11,21,12.30
2020,04,23,11,22,12.30
2020,04,23,11,23,12.30
2020,04,23,11,24,12.30
2020,04,23,11,25,12.30
2020,04,23,11,26,12.30
2020,04,23,11,27,12.30
2020,04,23,11,28,12.30
2020,04,23,11,29,12.30
2020,04,23,11,30,12.30
2020,04,23,11,31,12.30
2020,04,23,11,32,12.30
2020,04,23,11,33,12.20
2020,04,23,11,34,12.30
2020,04,23,11,35,12.30
2020,04,23,11,36,12.30
2020,04,23,11,37,12.30
2020,04,23,11,38,12.40
2020,04,23,11,39,12.50
2020,04,23,11,40,12.70
2020,04,23,11,41,12.80
2020,04,23,11,42,12.80
2020,04,23,11,43,12.80
2020,04,23,11,44,12.80
2020,04,23,11,45,12.80
2020,04,23,11,46,12.70
2020,04,23,11,47,12.80
2020,04,23,11,48,12.80
2020,04,23,11,49,12.90
2020,04,23,11,50,13.00
2020,04,23,11,51,13.10
2020,04,23,11,52,13.10
2020,04,23,11,53,13.10
2020,04,23,11,54,13.20
2020,04,23,11,55,13.10
2020,04,23,11,56,13.10
2020,04,23,11,57,13.10
2020,04,23,11,58,13.10
2020,04,23,11,59,13.10
2020,04,23,12,00,13.00
2020,04,23,12,01,13.00
2020,04,23,12,02,13.00
2020,04,23,12,03,13.10
2020,04,23,12,04,13.00
2020,04,23,12,05,13.00
2020,04,23,12,06,13.10
2020,04,23,12,07,13.10
2020,04,23,12,08,13.10
2020,04,23,12,09,13.20
2020,04,23,12,10,13.30
2020,04,23,12,11,13.30
2020,04,23,12,12,13.40
2020,04,23,12,13,13.30
2020,04,23,12,14,13.30
2020,04,23,12,15,13.30
2020,04,23,12,16,13.40
2020,04,23,12,17,13.40
2020,04,23,12,18,13.50
2020,04,23,12,19,13.40
2020,04,23,12,20,13.40
2020,04,23,12,21,13.30
2020,04,23,12,22,13.30
2020,04,23,12,23,13.20
2020,04,23,12,24,13.20
2020,04,23,12,25,13.10
2020,04,23,12,26,13.00
2020,04,23,12,27,13.00
2020,04,23,12,28,12.90
2020,04,23,12,29,12.90
2020,04,23,12,30,12.90
2020,04,23,12,31,12.90
2020,04,23,12,32,13.00
2020,04,23,12,33,13.10
2020,04,23,12,34,13.20
2020,04,23,12,35,13.30
2020,04,23,12,36,13.30
2020,04,23,12,37,13.40
2020,04,23,12,38,13.50
2020,04,23,12,39,13.50
2020,04,23,12,40,13.60
2020,04,23,12,41,13.50
2020,04,23,12,42,13.50
2020,04,23,12,43,13.50
2020,04,23,12,44,13.60
2020,04,23,12,45,13.70
2020,04,23,12,46,13.70
2020,04,23,12,47,13.60
2020,04,23,12,48,13.50
2020,04,23,12,49,13.40
2020,04,23,12,50,13.40
2020,04,23,12,51,13.40
2020,04,23,12,52,13.40
2020,04,23,12,53,13.40
2020,04,23,12,54,13.40
2020,04,23,12,55,13.30
2020,04,23,12,56,13.30
2020,04,23,12,57,13.30
2020,04,23,12,58,13.30
2020,04,23,12,59,13.30
2020,04,23,13,00,13.30
2020,04,23,13,01,13.30
2020,04,23,13,02,13.30
2020,04,23,13,03,13.30
2020,04,23,13,04,13.50
2020,04,23,13,05,13.60
2020,04,23,13,06,13.60
2020,04,23,13,07,13.70
2020,04,23,13,08,13.80
2020,04,23,13,09,13.80
2020,04,23,13,10,13.70
2020,04,23,13,11,13.70
2020,04,23,13,12,13.70
2020,04,23,13,13,13.70
2020,04,23,13,14,13.80
2020,04,23,13,15,13.80
2020,04,23,13,16,13.90
2020,04,23,13,17,13.90
2020,04,23,13,18,14.00
2020,04,23,13,19,14.00
2020,04,23,13,20,14.00
2020,04,23,13,21,14.00
2020,04,23,13,22,14.00
2020,04,23,13,23,14.10
2020,04,23,13,24,14.20
2020,04,23,13,25,14.20
2020,04,23,13,26,14.20
2020,04,23,13,27,14.20
2020,04,23,13,28,14.20
2020,04,23,13,29,14.20
2020,04,23,13,30,14.20
2020,04,23,13,31,14.20
2020,04,23,13,32,14.20
2020,04,23,13,33,14.20
2020,04,23,13,34,14.20
2020,04,23,13,35,14.30
2020,04,23,13,36,14.30
2020,04,23,13,37,14.20
2020,04,23,13,38,14.20
2020,04,23,13,39,14.20
2020,04,23,13,40,14.30
2020,04,23,13,41,14.40
2020,04,23,13,42,14.50
2020,04,23,13,43,14.50
2020,04,23,13,44,14.60
2020,04,23,13,45,14.70
2020,04,23,13,46,14.60
2020,04,23,13,47,14.60
2020,04,23,13,48,14.60
2020,04,23,13,49,14.60
2020,04,23,13,50,14.60
2020,04,23,13,51,14.60
2020,04,23,13,52,14.50
2020,04,23,13,53,14.40
2020,04,23,13,54,14.40
2020,04,23,13,55,14.30
2020,04,23,13,56,14.40
2020,04,23,13,57,14.40
2020,04,23,13,58,14.60
2020,04,23,13,59,14.60
2020,04,23,14,00,14.60
2020,04,23,14,01,14.60
2020,04,23,14,02,14.70
2020,04,23,14,03,14.70
2020,04,23,14,04,14.60
2020,04,23,14,05,14.60
2020,04,23,14,06,14.60
2020,04,23,14,07,14.70
2020,04,23,14,08,14.80
2020,04,23,14,09,14.80
2020,04,23,14,10,14.90
2020,04,23,14,11,15.00
2020,04,23,14,12,15.20
2020,04,23,14,13,15.30
2020,04,23,14,14,15.20
2020,04,23,14,15,15.10
2020,04,23,14,16,15.10
2020,04,23,14,17,15.00
2020,04,23,14,18,14.90
2020,04,23,14,19,14.90
2020,04,23,14,20,15.00
2020,04,23,14,21,14.90
2020,04,23,14,22,14.90
2020,04,23,14,23,14.90
2020,04,23,14,24,14.80
2020,04,23,14,25,14.80
2020,04,23,14,26,14.70
2020,04,23,14,27,14.70
2020,04,23,14,28,14.60
2020,04,23,14,29,14.60
2020,04,23,14,30,14.60
2020,04,23,14,31,14.70
2020,04,23,14,32,14.70
2020,04,23,14,33,14.80
2020,04,23,14,34,14.80
2020,04,23,14,35,15.00
2020,04,23,14,36,15.10
2020,04,23,14,37,15.10
2020,04,23,14,38,15.00
2020,04,23,14,39,15.10
2020,04,23,14,40,15.20
2020,04,23,14,41,15.20
2020,04,23,14,42,15.30
2020,04,23,14,43,15.30
2020,04,23,14,44,15.30
2020,04,23,14,45,15.30
2020,04,23,14,46,15.40
2020,04,23,14,47,15.40
2020,04,23,14,48,15.30
2020,04,23,14,49,15.30
2020,04,23,14,50,15.30
2020,04,23,14,51,15.20
2020,04,23,14,52,15.20
2020,04,23,14,53,15.10
2020,04,23,14,54,15.10
2020,04,23,14,55,15.20
2020,04,23,14,56,15.30
2020,04,23,14,57,15.30
2020,04,23,14,58,15.30
2020,04,23,14,59,15.40
2020,04,23,15,00,15.50
2020,04,23,15,01,15.50
2020,04,23,15,02,15.60
2020,04,23,15,03,15.60
2020,04,23,15,04,15.70
2020,04,23,15,05,15.70
2020,04,23,15,06,15.60
2020,04,23,15,07,15.40
2020,04,23,15,08,15.20
2020,04,23,15,09,15.10
2020,04,23,15,10,15.20
2020,04,23,15,11,15.10
2020,04,23,15,12,15.00
2020,04,23,15,13,14.90
2020,04,23,15,14,15.00
2020,04,23,15,15,15.00
2020,04,23,15,16,15.10
2020,04,23,15,17,15.20
2020,04,23,15,18,15.20
2020,04,23,15,19,15.20
2020,04,23,15,20,15.20
2020,04,23,15,21,15.20
2020,04,23,15,22,15.20
2020,04,23,15,23,15.30
2020,04,23,15,24,15.30
2020,04,23,15,25,15.40
2020,04,23,15,26,15.40
2020,04,23,15,27,15.50
2020,04,23,15,28,15.60
2020,04,23,15,29,15.60
2020,04,23,15,30,15.70
2020,04,23,15,31,15.60
2020,04,23,15,32,15.60
2020,04,23,15,33,15.50
2020,04,23,15,34,15.40
2020,04,23,15,35,15.40
2020,04,23,15,36,15.30
2020,04,23,15,37,15.30
2020,04,23,15,38,15.30
2020,04,23,15,39,15.40
2020,04,23,15,40,15.50
2020,04,23,15,41,15.60
2020,04,23,15,42,15.60
2020,04,23,15,43,15.60
2020,04,23,15,44,15.60
2020,04,23,15,45,15.60
2020,04,23,15,46,15.60
2020,04,23,15,47,15.40
2020,04,23,15,48,15.20
2020,04,23,15,49,15.20
2020,04,23,15,50,15.10
2020,04,23,15,51,15.00
2020,04,23,15,52,15.10
2020,04,23,15,53,15.10
2020,04,23,15,54,15.20
2020,04,23,15,55,15.20
2020,04,23,15,56,15.30
2020,04,23,15,57,15.40
2020,04,23,15,58,15.40
2020,04,23,15,59,15.40
2020,04,23,16,00,15.40
2020,04,23,16,01,15.30
2020,04,23,16,02,15.30
2020,04,23,16,03,15.30
2020,04,23,16,04,15.30
2020,04,23,16,05,15.30
2020,04,23,16,06,15.30
2020,04,23,16,07,15.30
2020,04,23,16,08,15.20
2020,04,23,16,09,15.20
2020,04,23,16,10,15.20
2020,04,23,16,11,15.20
2020,04,23,16,12,15.20
2020,04,23,16,13,15.20
2020,04,23,16,14,15.20
2020,04,23,16,15,15.30
2020,04,23,16,16,15.50
2020,04,23,16,17,15.60
2020,04,23,16,18,15.70
2020,04,23,16,19,15.80
2020,04,23,16,20,15.80
2020,04,23,16,21,15.80
2020,04,23,16,22,15.80
2020,04,23,16,23,15.80
2020,04,23,16,24,15.80
2020,04,23,16,25,15.70
2020,04,23,16,26,15.60
2020,04,23,16,27,15.60
2020,04,23,16,28,15.50
2020,04,23,16,29,15.60
2020,04,23,16,30,15.50
2020,04,23,16,31,15.50
2020,04,23,16,32,15.50
2020,04,23,16,33,15.50
2020,04,23,16,34,15.50
2020,04,23,16,35,15.50
2020,04,23,16,36,15.50
2020,04,23,16,37,15.40
2020,04,23,16,38,15.40
2020,04,23,16,39,15.50
2020,04,23,16,40,15.50
2020,04,23,16,41,15.40
2020,04,23,16,42,15.40
2020,04,23,16,43,15.40
2020,04,23,16,44,15.30
2020,04,23,16,45,15.40
2020,04,23,16,46,15.50
2020,04,23,16,47,15.60
2020,04,23,16,48,15.60
2020,04,23,16,49,15.60
2020,04,23,16,50,15.60
2020,04,23,16,51,15.50
2020,04,23,16,52,15.50
2020,04,23,16,53,15.50
2020,04,23,16,54,15.50
2020,04,23,16,55,15.50
2020,04,23,16,56,15.50
2020,04,23,16,57,15.50
2020,04,23,16,58,15.50
2020,04,23,16,59,15.50
2020,04,23,17,00,15.60
2020,04,23,17,01,15.60
2020,04,23,17,02,15.60
2020,04,23,17,03,15.50
2020,04,23,17,04,15.50
2020,04,23,17,05,15.50
2020,04,23,17,06,15.50
2020,04,23,17,07,15.60
2020,04,23,17,08,15.60
2020,04,23,17,09,15.70
2020,04,23,17,10,15.70
2020,04,23,17,11,15.70
2020,04,23,17,12,15.60
2020,04,23,17,13,15.60
2020,04,23,17,14,15.50
2020,04,23,17,15,15.50
2020,04,23,17,16,15.40
2020,04,23,17,17,15.30
2020,04,23,17,18,15.30
2020,04,23,17,19,15.30
2020,04,23,17,20,15.30
2020,04,23,17,21,15.30
2020,04,23,17,22,15.30
2020,04,23,17,23,15.20
2020,04,23,17,24,15.20
2020,04,23,17,25,15.20
2020,04,23,17,26,15.20
2020,04,23,17,27,15.20
2020,04,23,17,28,15.10
2020,04,23,17,29,15.10
2020,04,23,17,30,15.10
2020,04,23,17,31,15.20
2020,04,23,17,32,15.30
2020,04,23,17,33,15.30
2020,04,23,17,34,15.30
2020,04,23,17,35,15.40
2020,04,23,17,36,15.40
2020,04,23,17,37,15.50
2020,04,23,17,38,15.50
2020,04,23,17,39,15.50
2020,04,23,17,40,15.40
2020,04,23,17,41,15.30